Flag for Italy Weather past 2 weeks in Trieste, Italy

Now
54 °F

Clear.


Feels Like: 52 °F
Forecast: 42 / 67 °F
Wind: 7 mph from East

Location: Trieste

Current Time: Apr 20, 2015 at 3:12:56 AM

Latest Report: Apr 20, 2015 at 2:00 AM


Visibility: 13 mi

Pressure: 30.11 "Hg

Humidity: 44%

Dew point: 33 °F

Location of TriesteLocation

Historic Weather in Trieste — Graph

°F

Trieste temperature yesterday

Maximum temperature yesterday: 61 °F (at 4:00 PM)
Minimum temperature yesterday: 40 °F (at 6:00 AM)
Average temperature yesterday: 51 °F

Past Weeks' High & Low Weather Summary

 TemperatureHumidityPressure
High73 °F (Apr 14, 2:00 PM)95% (Apr 17, 2:00 PM)30.43 "Hg (Apr 17, 2:00 PM)
Low40 °F (Apr 19, 6:00 AM)2% (Apr 15, 8:00 PM)29.78 "Hg (Apr 5, 4:00 AM)
Average55 °F60%30.20 "Hg
* Reported Apr 5 2:00 AM — Apr 20 2:00 AM, Trieste, Weather by CustomWeather, © 2015

Note: Actual official high and low records may vary slightly from our data, if they occured in-between our weather recording intervals... More about our weather records

Advertising

Trieste weather history for previous 24 hours

 ConditionsComfort  
Time TempWeatherWind HumidityBarometerVisibility
2:00 AM
Mon, Apr 20
54 °FClear.7 mph44%30.11 "Hg12 mi
1:00 AM54 °FClear.8 mph44%30.11 "Hg12 mi
12:00 AM50 °FClear.2 mph51%30.14 "Hg12 mi
11:00 PM
Sun, Apr 19
50 °FClear.3 mph54%30.14 "Hg12 mi
10:00 PM50 °FClear.3 mph49%30.13 "Hg12 mi
9:00 PM54 °FClear.3 mph39%30.11 "Hg12 mi
8:00 PM58 °FClear.1 mph31%30.09 "Hg12 mi
7:00 PM60 °FSunny.5 mph28%30.06 "Hg12 mi
6:00 PM61 °FSunny.6 mph28%30.06 "Hg12 mi
5:00 PM61 °FSunny.5 mph28%30.08 "Hg12 mi
4:00 PM61 °FSunny.5 mph30%30.10 "Hg12 mi
3:00 PM59 °FSunny.8 mph32%30.13 "Hg12 mi
2:00 PM59 °FSunny.5 mph32%30.14 "Hg12 mi
1:00 PM58 °FSunny.3 mph33%30.16 "Hg12 mi
12:00 PM56 °FSunny.7 mph35%30.18 "Hg12 mi
11:00 AM54 °FSunny.8 mph37%30.18 "Hg12 mi
10:00 AM53 °FSunny.2 mph41%30.18 "Hg12 mi
9:00 AM49 °FSunny.5 mph46%30.18 "Hg12 mi
8:00 AM45 °FSunny.5 mph60%30.18 "Hg12 mi
7:00 AM42 °FSunny.3 mph68%30.18 "Hg12 mi
6:00 AM40 °FClear.3 mph78%30.18 "Hg12 mi
5:00 AM42 °FClear.3 mph71%30.18 "Hg12 mi
4:00 AM41 °FClear.2 mph77%30.19 "Hg12 mi
3:00 AM41 °FClear.3 mph80%30.20 "Hg12 mi
Weather by CustomWeather, © 2015

See weather overviewHow to use our weather pages